Other Public Products
Issued by NWS Charleston, SC

Current Version | Previous Version | Graphics & Text | Print | Product List | Glossary On
Versions: 1 2 3 4 5 6 7 8 9 10 11 12 13 14 15 16 17 18 19 20 21 22 23 24 25 26 27 28 29 30 31 32 33 34 35 36 37 38 39 40 41 42 43 44 45 46 47 48 49 50
000 FPUS82 KCHS 250412 OPUCHS TEST...KCHS/KSAV Gateway Observations...TEST National Weather Service Charleston SC 1200 AM EDT TUE JUL 25 2017 NOTE: "fair" indicates few or no clouds below 12,000 feet with no significant weather and/or obstructions to visibility. SCZ050-WAZ558-NCZ071-TXZ119-213-PAZ071-DCZ001-FLZ074-172-MI076- NYZ176-178-MAZ016-IL014-TNZ027-NJZ106-GAZ044-MD014-250500- ...Gateway Observations for Charleston International... CITY SKY/WX TMP DP RH WIND PRES REMARKS Chas Airport CLOUDY 75 72 90 SE5 30.00F Seattle PTCLDY 73 53 49 N8 29.96R Charlotte MOCLDY 79 73 82 SW6 30.00S Dallas DFW CLEAR 83 74 74 SE7 29.97R Dallas Love CLEAR 83 72 69 SE13 29.98R Philladelphia CLOUDY 70 67 90 E3 29.93R Wash National CLOUDY 81 70 69 N13 29.90R Baltimore CLOUDY 73 72 96 NW6 29.90R Miami PTCLDY 85 77 77 SE5 30.10F HX 95 Detroit PTCLDY 64 53 67 CALM 30.12R Newark CLOUDY 65 59 81 E7 29.96R Laguardia CLOUDY 65 59 81 E10 29.96R J F K CLOUDY 64 60 87 NE8 29.96S Boston Logan CLOUDY 58 57 97 N13 29.97R Ft. Lauderdale MOCLDY 84 77 79 SE6 30.10S HX 94 Chicago O`Hare PTCLDY 68 59 73 NE7 30.11S Chicago Midway PTCLDY 69 60 73 NE8 30.11R Houston Bush PTCLDY 83 73 72 S7 30.02R Houston Hobby PTCLDY 83 74 74 S6 30.02R Nashville PTCLDY 83 73 72 N6 30.01S Atlanta MOCLDY 75 71 87 W5 30.05S $$ GAZ044-118-TXZ119-213-NCZ071-DCZ001-MDZ014-506-PAZ021-071-NJZ106- NYZ176-178-MAZ106-OHZ011-021-055-MIZ076-KYZ091-ILZ014-INZ047- MNZ060-ONZ431-250500- ...Gateway Observations for Savannah International... CITY SKY/WX TMP DP RH WIND PRES REMARKS Savannah Arpt CLOUDY 77 74 90 S7 30.02R Atlanta MOCLDY 75 71 87 W5 30.05S Charlotte MOCLDY 79 73 82 SW6 30.00S Dallas DFW CLEAR 83 74 74 SE7 29.97R Houston Bush PTCLDY 83 73 72 S7 30.02R Wash National CLOUDY 81 70 69 N13 29.90R Wash Dulles PTCLDY 79 65 62 NW12 29.91R Baltimore CLOUDY 73 72 96 NW6 29.90R Philadelphia CLOUDY 70 67 90 E3 29.93R Newark CLOUDY 65 59 81 E7 29.96R Laguardia CLOUDY 65 59 81 E10 29.96R J F K CLOUDY 64 60 87 NE8 29.96S Boston CLOUDY 58 57 97 N13 29.97R Pittsburg CLOUDY 65 56 72 NW9 30.05R Akron PTCLDY 63 52 67 N8 30.07S Cleveland PTCLDY 68 53 58 N16G28 30.09R Cincinnati CLEAR 72 63 73 NE10 30.08R Columbus CLEAR 65 59 83 N8 30.09R Detroit PTCLDY 64 53 67 CALM 30.12R Chicago O`Hare PTCLDY 68 59 73 NE7 30.11S Minneapolis MOCLDY 70 59 68 S9 30.05R Indianapolis CLEAR 71 60 68 E9 30.07R Toronto Canada CLOUDY 63 55 77 N15G21 30.00R $$

USA.gov is the U.S. government's official web portal to all federal, state and local government web resources and services.